Hourly Weather Abuzere

Today, 16 May, Sunday

Time Temperature Precipitation Wind Pressure Humidity
00:00 +12°C° 0 mm 2 mps 740 mmHg 94%
01:00 +12°C° 0 mm 2 mps 741 mmHg 94%
02:00 +10°C° 0 mm 2 mps 741 mmHg 94%
03:00 +10°C° 0 mm 2 mps 741 mmHg 94%
04:00 +11°C° 0 mm 1 mps 742 mmHg 94%
05:00 +11°C° 0 mm 1 mps 742 mmHg 94%
06:00 +13°C° 0 mm 1 mps 742 mmHg 89%
07:00 +14°C° 0 mm 1 mps 742 mmHg 84%
08:00 +16°C° 0 mm 1 mps 743 mmHg 80%
09:00 +17°C° 0.1 mm 2 mps 743 mmHg 75%
10:00 +18°C° 0.1 mm 2 mps 743 mmHg 70%
11:00 +19°C° 0.1 mm 3 mps 743 mmHg 65%
12:00 +20°C° 0.2 mm 3 mps 743 mmHg 63%
13:00 +20°C° 0.2 mm 3 mps 743 mmHg 62%
14:00 +20°C° 0.2 mm 3 mps 743 mmHg 60%
15:00 +20°C° 0 mm 3 mps 743 mmHg 61%
16:00 +20°C° 0 mm 2 mps 743 mmHg 62%
17:00 +20°C° 0 mm 2 mps 743 mmHg 62%
18:00 +18°C° 0 mm 2 mps 743 mmHg 68%
19:00 +17°C° 0 mm 2 mps 743 mmHg 73%
20:00 +15°C° 0 mm 2 mps 743 mmHg 79%
21:00 +15°C° 0 mm 2 mps 743 mmHg 81%
22:00 +14°C° 0 mm 2 mps 743 mmHg 84%
23:00 +13°C° 0 mm 3 mps 743 mmHg 86%

Tomorrow, 17 May, Monday

Time Temperature Precipitation Wind Pressure Humidity
00:00 +12°C° 0 mm 3 mps 743 mmHg 87%
01:00 +12°C° 0 mm 3 mps 743 mmHg 87%
02:00 +12°C° 0 mm 3 mps 742 mmHg 88%
03:00 +12°C° 0 mm 3 mps 742 mmHg 89%
04:00 +12°C° 0 mm 3 mps 742 mmHg 90%
05:00 +12°C° 0 mm 3 mps 742 mmHg 91%
06:00 +13°C° 0 mm 4 mps 742 mmHg 86%
07:00 +15°C° 0 mm 4 mps 742 mmHg 82%
08:00 +17°C° 0 mm 4 mps 742 mmHg 77%
09:00 +18°C° 0 mm 4 mps 742 mmHg 76%
10:00 +18°C° 0 mm 4 mps 742 mmHg 74%
11:00 +19°C° 0 mm 4 mps 741 mmHg 73%
12:00 +19°C° 0.4 mm 3 mps 741 mmHg 76%
13:00 +18°C° 0.4 mm 3 mps 741 mmHg 78%
14:00 +18°C° 0.4 mm 2 mps 741 mmHg 80%
15:00 +17°C° 0.6 mm 2 mps 740 mmHg 83%
16:00 +16°C° 0.6 mm 2 mps 740 mmHg 86%
17:00 +16°C° 0.6 mm 2 mps 739 mmHg 88%
18:00 +15°C° 1.3 mm 2 mps 739 mmHg 91%
19:00 +15°C° 1.3 mm 2 mps 739 mmHg 94%
20:00 +14°C° 1.3 mm 2 mps 738 mmHg 96%
21:00 +14°C° 0.8 mm 2 mps 738 mmHg 97%
22:00 +13°C° 0.8 mm 3 mps 737 mmHg 98%
23:00 +13°C° 0.8 mm 3 mps 737 mmHg 98%

Day after tomorrow, 18 May, Tuesday

Time Temperature Precipitation Wind Pressure Humidity
00:00 +14°C° 0.6 mm 2 mps 736 mmHg 98%
01:00 +14°C° 0.6 mm 2 mps 736 mmHg 98%
02:00 +14°C° 0.6 mm 2 mps 735 mmHg 98%
03:00 +14°C° 0.4 mm 3 mps 735 mmHg 98%
04:00 +14°C° 0.4 mm 3 mps 734 mmHg 98%
05:00 +15°C° 0.4 mm 4 mps 734 mmHg 97%
06:00 +15°C° 0.2 mm 5 mps 734 mmHg 95%
07:00 +16°C° 0.2 mm 5 mps 733 mmHg 92%
08:00 +16°C° 0.2 mm 6 mps 733 mmHg 90%
09:00 +17°C° 0.2 mm 6 mps 733 mmHg 87%
10:00 +17°C° 0.2 mm 7 mps 733 mmHg 85%
11:00 +18°C° 0.2 mm 7 mps 733 mmHg 82%
12:00 +17°C° 0.3 mm 6 mps 734 mmHg 85%
13:00 +16°C° 0.3 mm 6 mps 734 mmHg 88%
14:00 +15°C° 0.3 mm 5 mps 734 mmHg 92%
15:00 +15°C° 0.3 mm 4 mps 734 mmHg 90%
16:00 +15°C° 0.3 mm 4 mps 734 mmHg 89%
17:00 +17°C° 0.3 mm 3 mps 734 mmHg 88%
18:00 +16°C° 0.1 mm 3 mps 735 mmHg 90%
19:00 +15°C° 0.1 mm 2 mps 735 mmHg 91%
20:00 +15°C° 0.1 mm 2 mps 735 mmHg 93%
21:00 +14°C° 0.1 mm 2 mps 735 mmHg 94%
22:00 +14°C° 0.1 mm 1 mps 736 mmHg 94%
23:00 +14°C° 0.1 mm 1 mps 736 mmHg 95%

19 May, Wednesday

Time Temperature Precipitation Wind Pressure Humidity
00:00 +13°C° 0.1 mm 1 mps 736 mmHg 95%
01:00 +13°C° 0.1 mm 1 mps 736 mmHg 94%
02:00 +13°C° 0.1 mm 1 mps 736 mmHg 94%
03:00 +13°C° 0.1 mm 2 mps 736 mmHg 94%
04:00 +13°C° 0.1 mm 2 mps 736 mmHg 94%
05:00 +11°C° 0.1 mm 3 mps 737 mmHg 94%
06:00 +11°C° 0 mm 3 mps 737 mmHg 94%
07:00 +11°C° 0 mm 3 mps 737 mmHg 93%
08:00 +11°C° 0 mm 4 mps 737 mmHg 93%
09:00 +11°C° 0.1 mm 4 mps 737 mmHg 93%
10:00 +11°C° 0.1 mm 4 mps 738 mmHg 92%
11:00 +12°C° 0.1 mm 4 mps 738 mmHg 91%
12:00 +11°C° 2 mm 4 mps 738 mmHg 92%
13:00 +10°C° 2 mm 5 mps 737 mmHg 94%
14:00 +10°C° 2 mm 5 mps 737 mmHg 95%
15:00 +10°C° 1.2 mm 5 mps 737 mmHg 96%
16:00 +10°C° 1.2 mm 6 mps 737 mmHg 96%
17:00 +9°C° 1.2 mm 6 mps 737 mmHg 96%
18:00 +10°C° 1.9 mm 6 mps 737 mmHg 96%
19:00 +10°C° 1.9 mm 6 mps 737 mmHg 96%
20:00 +10°C° 1.9 mm 6 mps 737 mmHg 96%
21:00 +10°C° 1.4 mm 7 mps 737 mmHg 96%
22:00 +10°C° 1.4 mm 7 mps 736 mmHg 96%
23:00 +10°C° 1.4 mm 8 mps 736 mmHg 95%

20 May, Thursday

Time Temperature Precipitation Wind Pressure Humidity
00:00 +9°C° 2.6 mm 8 mps 736 mmHg 95%
01:00 +9°C° 2.6 mm 8 mps 736 mmHg 94%
02:00 +9°C° 2.6 mm 8 mps 736 mmHg 94%
03:00 +7°C° 2.9 mm 9 mps 737 mmHg 94%
04:00 +7°C° 2.9 mm 9 mps 737 mmHg 94%
05:00 +7°C° 2.9 mm 9 mps 737 mmHg 94%
06:00 +7°C° 1.2 mm 8 mps 737 mmHg 93%
07:00 +8°C° 1.2 mm 7 mps 738 mmHg 93%
08:00 +8°C° 1.2 mm 6 mps 739 mmHg 92%
09:00 +8°C° 0.1 mm 6 mps 739 mmHg 92%
10:00 +9°C° 0.1 mm 5 mps 740 mmHg 92%
11:00 +9°C° 0.1 mm 5 mps 740 mmHg 91%
12:00 +10°C° 0.1 mm 5 mps 741 mmHg 83%
13:00 +13°C° 0.1 mm 5 mps 741 mmHg 74%
14:00 +15°C° 0.1 mm 5 mps 741 mmHg 65%
15:00 +15°C° 0.1 mm 5 mps 742 mmHg 65%
16:00 +15°C° 0.1 mm 4 mps 742 mmHg 65%
17:00 +16°C° 0.1 mm 3 mps 742 mmHg 65%
18:00 +14°C° 0 mm 3 mps 743 mmHg 71%
19:00 +13°C° 0 mm 2 mps 743 mmHg 76%
20:00 +12°C° 0 mm 2 mps 744 mmHg 81%
21:00 +10°C° 0 mm 2 mps 744 mmHg 85%
22:00 +9°C° 0 mm 2 mps 744 mmHg 88%
23:00 +8°C° 0 mm 2 mps 744 mmHg 91%

21 May, Friday

Time Temperature Precipitation Wind Pressure Humidity
00:00 +8°C° 0 mm 2 mps 745 mmHg 92%
01:00 +8°C° 0 mm 2 mps 745 mmHg 93%
02:00 +7°C° 0 mm 2 mps 745 mmHg 94%
03:00 +7°C° 0 mm 2 mps 745 mmHg 94%
04:00 +8°C° 0 mm 1 mps 745 mmHg 94%
05:00 +8°C° 0 mm 1 mps 745 mmHg 94%
06:00 +8°C° 0 mm 2 mps 745 mmHg 86%
07:00 +10°C° 0 mm 2 mps 745 mmHg 77%
08:00 +11°C° 0 mm 3 mps 745 mmHg 68%
09:00 +12°C° 0 mm 3 mps 744 mmHg 65%
10:00 +13°C° 0 mm 3 mps 744 mmHg 61%
11:00 +14°C° 0 mm 3 mps 744 mmHg 57%
12:00 +14°C° 0 mm 3 mps 743 mmHg 57%
13:00 +14°C° 0 mm 3 mps 743 mmHg 57%
14:00 +14°C° 0 mm 4 mps 742 mmHg 57%
15:00 +14°C° 0 mm 4 mps 742 mmHg 60%
16:00 +13°C° 0 mm 4 mps 741 mmHg 62%
17:00 +13°C° 0 mm 4 mps 741 mmHg 64%
18:00 +12°C° 0 mm 3 mps 741 mmHg 67%
19:00 +11°C° 0 mm 3 mps 741 mmHg 71%
20:00 +9°C° 0 mm 2 mps 741 mmHg 74%
21:00 +8°C° 0 mm 3 mps 741 mmHg 78%
22:00 +7°C° 0 mm 3 mps 741 mmHg 82%
23:00 +5°C° 0 mm 3 mps 741 mmHg 87%
Show more